Starlink 31984

operational
NORAD ID: 60018 Int'l Des: 2024-111 Owner: SPXS Country: US Constellation: starlink
LEOCIRCULAR

About Starlink 31984

Description loading...

Live Position

Loading 3D Globe...

Upcoming Passes

Altitude History

Altitude vs Time

uPlot chart will show altitude changes over time

Two-Line Element Set

1 60018U 24111C 26035.85321067 .00000018 00000-0 12743-4 0 9992
2 60018 53.1599 228.3207 0001003 86.8510 273.2605 15.30188761 93855
Epoch: Feb 4, 2026 • Age: 18 hours

Current Status

Altitude 480.0 km
Velocity 7.63 km/s
Sub-Earth Point 48.14°N, 0.2°W
Launch Date Jun 8, 2024
Age 1.6 years
Type internet

Technical Details

Classification Payload
Mass 730.00 kg
Dry Mass 700.00 kg
Total Mass 730.00 kg
Length 0.30 m
Diameter 4.10 m
Span 29.00 m
Shape Box + pan
Manufacturer SPXS
Bus Type Starlink V2M
Phase Status In Orbit
Owner/State SPXS/US

Large Constellations

Loading constellations...